Temp
-4 -4 -4 -4 -4 -4 -4 -4 -4 -4 -4 -4 -5 -5 -4 -4 -4 -4 -4 -4 -4 -4 -4 -4 -4 -4 -4 -4 -4 -4 -4 -4 -4 -4 -4 -4 -4 -4 -4 -4 -3 -3 -3 -3 -3 -3 -2 -2 -2 -2 -2 -2 -2 -2 -1 -1 -1 -1 -1 -0 -0 -0 -0 -0 -0 0 0 1 1
-4 -5 -5 -5 -5 -5 -5 -5 -5 -5 -5 -5 -5 -5 -5 -5 -4 -4 -4 -4 -4 -4 -4 -4 -4 -4 -4 -4 -4 -4 -4 -4 -4 -4 -4 -4 -4 -4 -4 -4 -4 -4 -4 -3 -3 -3 -3 -2 -2 -2 -2 -2 -2 -2 -2 -1 -1 -1 -1 -1 -0 -0 -0 -0 -0 0 0 1 1
-5 -5 -5 -5 -5 -5 -5 -5 -6 -6 -6 -6 -6 -6 -5 -5 -5 -5 -5 -5 -5 -5 -5 -5 -5 -5 -5 -5 -5 -5 -5 -5 -5 -5 -5 -5 -5 -5 -5 -5 -4 -4 -4 -4 -3 -3 -3 -3 -3 -2 -2 -2 -2 -2 -2 -2 -1 -1 -1 -1 -1 -1 -1 -0 -0 -0 0 0 1
-5 -5 -5 -6 -6 -6 -6 -6 -6 -6 -6 -6 -6 -6 -6 -6 -5 -5 -5 -5 -5 -5 -5 -5 -5 -5 -5 -5 -5 -5 -5 -5 -5 -5 -5 -5 -5 -5 -5 -5 -5 -5 -4 -4 -4 -4 -3 -3 -3 -3 -3 -2 -2 -2 -2 -2 -1 -1 -1 -1 -1 -1 -1 -1 -1 -0 0 0 1
-6 -6 -6 -6 -6 -6 -6 -7 -7 -7 -7 -7 -6 -6 -6 -6 -6 -6 -6 -6 -6 -6 -5 -5 -5 -5 -5 -5 -5 -5 -5 -5 -5 -6 -6 -6 -6 -6 -6 -5 -5 -5 -5 -4 -4 -4 -4 -4 -3 -3 -3 -3 -2 -2 -2 -2 -2 -1 -1 -1 -1 -1 -1 -1 -1 -0 -0 0 0
-6 -6 -6 -6 -6 -7 -7 -7 -7 -7 -7 -7 -7 -7 -6 -6 -6 -6 -6 -6 -6 -6 -6 -6 -5 -5 -5 -5 -5 -6 -6 -6 -6 -6 -6 -6 -6 -6 -6 -6 -5 -5 -5 -5 -4 -4 -4 -4 -4 -3 -3 -3 -3 -2 -2 -2 -2 -2 -2 -2 -1 -1 -1 -1 -1 -1 -0 -0 0
-6 -6 -6 -7 -7 -7 -7 -7 -7 -7 -7 -7 -7 -7 -7 -6 -6 -6 -6 -6 -6 -6 -6 -6 -6 -6 -6 -6 -6 -6 -6 -6 -6 -7 -7 -6 -6 -6 -6 -6 -5 -5 -5 -5 -5 -4 -4 -4 -4 -4 -3 -3 -3 -2 -2 -2 -2 -2 -2 -2 -2 -1 -1 -1 -1 -1 -1 -1 -0
-6 -7 -7 -7 -7 -7 -7 -8 -8 -8 -7 -7 -7 -7 -7 -7 -7 -7 -7 -7 -6 -6 -6 -6 -6 -6 -6 -6 -6 -6 -6 -7 -7 -7 -7 -7 -7 -6 -6 -6 -6 -5 -5 -5 -5 -5 -5 -4 -4 -4 -3 -3 -3 -3 -2 -2 -2 -2 -2 -2 -2 -2 -1 -1 -1 -1 -1 -1 -1
-7 -7 -7 -7 -7 -8 -8 -8 -8 -8 -8 -7 -7 -7 -7 -7 -7 -7 -7 -7 -7 -7 -6 -6 -6 -6 -6 -6 -6 -7 -7 -7 -7 -7 -7 -7 -7 -7 -6 -6 -6 -5 -5 -5 -5 -5 -5 -5 -4 -4 -3 -3 -3 -3 -3 -3 -3 -3 -2 -2 -2 -1 -1 -1 -1 -1 -1 -1 -1
-7 -7 -7 -7 -8 -8 -8 -8 -8 -8 -8 -7 -7 -7 -7 -7 -7 -7 -7 -7 -7 -7 -7 -6 -6 -6 -6 -7 -7 -7 -7 -7 -7 -7 -7 -7 -7 -7 -6 -6 -6 -6 -5 -5 -5 -5 -5 -5 -4 -4 -4 -3 -3 -3 -3 -3 -3 -3 -3 -2 -2 -1 -1 -1 -1 -1 -1 -1 -1
-7 -7 -8 -8 -8 -8 -8 -8 -8 -8 -8 -7 -7 -7 -7 -7 -7 -7 -7 -7 -7 -7 -7 -7 -7 -7 -7 -7 -7 -7 -8 -8 -8 -7 -7 -7 -7 -7 -6 -6 -6 -6 -6 -6 -5 -5 -5 -5 -4 -4 -4 -4 -4 -3 -3 -3 -3 -3 -3 -2 -2 -1 -1 -1 -1 -1 -1 -1 -1
-7 -8 -8 -8 -8 -8 -8 -8 -8 -8 -8 -8 -7 -8 -8 -8 -8 -8 -8 -7 -7 -7 -7 -7 -7 -7 -7 -7 -7 -8 -8 -8 -8 -8 -7 -7 -7 -7 -6 -6 -6 -6 -6 -6 -6 -5 -5 -5 -5 -4 -4 -4 -4 -4 -4 -3 -3 -3 -3 -2 -2 -1 -1 -1 -2 -2 -1 -1 -1
-8 -8 -8 -8 -8 -9 -8 -8 -8 -8 -8 -8 -8 -8 -8 -8 -8 -8 -8 -8 -7 -7 -7 -7 -7 -7 -7 -8 -8 -8 -8 -8 -8 -7 -7 -7 -7 -7 -6 -6 -6 -6 -6 -6 -6 -6 -5 -5 -5 -5 -4 -4 -4 -4 -4 -4 -3 -3 -3 -2 -2 -1 -1 -2 -2 -2 -2 -1 -1
-8 -8 -8 -9 -9 -9 -9 -9 -8 -8 -8 -8 -8 -8 -8 -8 -8 -8 -8 -8 -8 -7 -7 -7 -7 -7 -8 -8 -8 -8 -8 -8 -8 -7 -7 -7 -7 -7 -7 -6 -6 -6 -6 -6 -6 -6 -5 -5 -5 -5 -5 -5 -4 -4 -4 -4 -3 -3 -2 -2 -1 -2 -2 -2 -2 -2 -2 -2 -1
-8 -8 -9 -9 -9 -9 -9 -9 -9 -8 -8 -8 -8 -8 -8 -8 -8 -8 -8 -8 -8 -7 -7 -7 -8 -8 -8 -8 -8 -8 -8 -8 -8 -7 -7 -7 -7 -7 -7 -7 -6 -6 -6 -6 -6 -6 -6 -5 -5 -5 -5 -5 -5 -4 -4 -4 -4 -3 -2 -2 -2 -2 -2 -2 -2 -2 -2 -2 -2
-8 -8 -9 -9 -9 -9 -9 -9 -9 -9 -9 -8 -8 -9 -8 -8 -8 -8 -8 -8 -8 -8 -8 -8 -8 -8 -8 -8 -8 -8 -8 -8 -8 -7 -7 -7 -7 -7 -7 -7 -6 -6 -6 -6 -6 -6 -6 -5 -5 -5 -5 -5 -5 -4 -4 -4 -4 -3 -2 -2 -2 -2 -2 -2 -2 -2 -2 -2 -2
-8 -9 -9 -9 -9 -9 -9 -9 -9 -9 -9 -9 -9 -9 -9 -9 -8 -8 -8 -8 -8 -8 -8 -8 -8 -8 -8 -8 -8 -8 -8 -8 -8 -7 -7 -7 -7 -7 -7 -7 -6 -6 -6 -6 -6 -6 -6 -5 -5 -5 -5 -5 -5 -4 -4 -4 -3 -2 -2 -2 -2 -2 -2 -2 -2 -2 -2 -2 -2
-9 -9 -9 -9 -9 -9 -9 -9 -9 -9 -9 -9 -9 -9 -9 -9 -8 -8 -8 -8 -8 -8 -8 -8 -8 -8 -8 -8 -8 -8 -8 -8 -7 -7 -7 -7 -7 -7 -7 -6 -6 -6 -6 -6 -6 -6 -5 -5 -5 -5 -5 -5 -5 -4 -4 -4 -3 -2 -2 -2 -2 -2 -2 -2 -2 -2 -2 -2 -2
-9 -9 -9 -9 -9 -9 -9 -9 -9 -9 -9 -9 -9 -9 -9 -9 -8 -8 -8 -8 -8 -8 -8 -8 -8 -8 -8 -8 -8 -8 -8 -8 -7 -7 -7 -7 -7 -7 -7 -6 -6 -6 -6 -6 -6 -6 -5 -5 -5 -5 -5 -5 -4 -4 -4 -3 -2 -2 -2 -2 -2 -3 -3 -3 -3 -2 -2 -2 -2
-9 -9 -9 -9 -9 -9 -9 -9 -9 -9 -9 -9 -9 -9 -9 -8 -8 -8 -8 -8 -8 -8 -8 -8 -8 -8 -8 -8 -8 -8 -8 -7 -7 -7 -7 -7 -7 -7 -6 -6 -6 -6 -6 -6 -6 -5 -5 -5 -5 -5 -4 -4 -4 -4 -3 -3 -2 -2 -2 -2 -2 -2 -2 -2 -2 -2 -2 -2 -2
-9 -9 -9 -9 -9 -9 -9 -9 -9 -9 -9 -9 -9 -9 -8 -8 -8 -8 -8 -8 -8 -8 -8 -8 -8 -8 -8 -8 -8 -8 -8 -7 -7 -7 -7 -7 -7 -7 -6 -6 -6 -6 -6 -6 -5 -5 -5 -5 -5 -4 -4 -3 -3 -3 -3 -2 -2 -2 -2 -2 -2 -2 -2 -2 -2 -2 -2 -2 -2
-9 -9 -9 -9 -9 -9 -9 -9 -9 -9 -9 -9 -9 -9 -8 -8 -8 -8 -8 -8 -8 -8 -8 -8 -8 -8 -8 -8 -8 -8 -7 -7 -7 -7 -7 -7 -7 -6 -6 -6 -6 -6 -6 -5 -5 -5 -5 -5 -4 -3 -2 -2 -2 -2 -2 -2 -2 -2 -2 -2 -2 -2 -2 -2 -2 -2 -2 -2 -2
-9 -9 -9 -9 -9 -9 -9 -9 -9 -9 -9 -9 -9 -9 -8 -8 -8 -8 -8 -8 -8 -8 -8 -8 -8 -8 -8 -8 -8 -7 -7 -7 -7 -7 -7 -7 -6 -6 -6 -6 -6 -6 -5 -5 -5 -5 -5 -4 -3 -2 -2 -2 -2 -2 -2 -2 -2 -2 -2 -2 -2 -2 -2 -2 -2 -2 -2 -2 -2
-9 -10 -9 -9 -9 -9 -9 -9 -9 -9 -9 -9 -9 -9 -8 -8 -8 -8 -8 -8 -8 -8 -8 -8 -8 -8 -8 -8 -7 -7 -7 -7 -7 -7 -6 -6 -6 -6 -6 -6 -6 -5 -5 -5 -5 -5 -4 -3 -2 -2 -2 -2 -2 -2 -2 -2 -2 -1 -1 -2 -2 -2 -2 -2 -2 -2 -2 -2 -2
-10 -10 -10 -10 -10 -10 -10 -10 -9 -9 -9 -9 -9 -9 -8 -8 -8 -8 -8 -8 -8 -8 -8 -8 -8 -8 -8 -7 -7 -7 -7 -7 -7 -7 -6 -6 -6 -6 -6 -6 -5 -5 -5 -5 -5 -4 -3 -3 -2 -2 -2 -2 -2 -2 -2 -2 -1 -1 -1 -1 -1 -2 -2 -2 -2 -2 -2 -2 -2
-10 -10 -10 -10 -10 -10 -10 -10 -10 -9 -9 -9 -9 -9 -8 -8 -8 -8 -8 -8 -8 -8 -8 -8 -8 -8 -7 -7 -7 -7 -7 -7 -7 -6 -6 -6 -6 -6 -6 -5 -5 -5 -5 -5 -4 -4 -3 -3 -2 -2 -2 -2 -2 -2 -2 -2 -2 -1 -1 -1 -1 -2 -2 -2 -2 -2 -2 -2 -2
-10 -10 -10 -10 -10 -10 -10 -10 -10 -9 -9 -9 -9 -9 -8 -8 -8 -8 -8 -8 -8 -8 -8 -8 -8 -7 -7 -7 -7 -7 -7 -7 -7 -6 -6 -6 -6 -6 -6 -5 -5 -5 -5 -5 -4 -4 -3 -3 -2 -2 -2 -2 -2 -2 -2 -2 -2 -1 -1 -1 -1 -2 -2 -2 -3 -3 -3 -2 -2
-10 -10 -10 -10 -10 -10 -10 -10 -9 -9 -9 -9 -9 -9 -8 -8 -8 -8 -8 -8 -8 -8 -8 -7 -7 -7 -7 -7 -7 -7 -7 -7 -7 -6 -6 -6 -6 -6 -6 -5 -5 -5 -5 -4 -4 -4 -3 -3 -3 -2 -2 -2 -3 -2 -2 -2 -2 -1 -1 -1 -2 -2 -2 -3 -3 -3 -3 -2 -2
-10 -10 -10 -10 -10 -10 -9 -9 -9 -9 -9 -9 -9 -9 -9 -8 -8 -8 -8 -8 -8 -7 -7 -7 -7 -7 -7 -7 -7 -7 -7 -7 -7 -6 -6 -6 -6 -6 -6 -5 -5 -5 -5 -4 -4 -4 -3 -3 -3 -3 -2 -2 -3 -3 -2 -2 -2 -2 -1 -2 -2 -2 -3 -3 -3 -3 -3 -2 -2
-10 -10 -10 -9 -9 -9 -9 -9 -9 -9 -9 -9 -9 -9 -9 -9 -8 -8 -8 -8 -8 -8 -7 -7 -7 -7 -7 -7 -7 -7 -7 -7 -7 -7 -6 -6 -6 -6 -6 -5 -5 -5 -5 -4 -4 -4 -3 -3 -3 -3 -3 -2 -3 -3 -3 -2 -2 -2 -2 -2 -2 -3 -3 -3 -3 -3 -3 -2 -2
-9 -9 -9 -9 -9 -9 -9 -9 -9 -9 -9 -9 -9 -9 -9 -9 -9 -8 -8 -8 -8 -8 -8 -8 -7 -7 -7 -7 -7 -7 -7 -7 -7 -7 -7 -6 -6 -6 -6 -6 -5 -5 -5 -4 -4 -4 -3 -3 -3 -3 -3 -3 -3 -3 -3 -2 -2 -2 -2 -2 -3 -3 -3 -3 -3 -3 -3 -2 -2
-9 -9 -9 -9 -9 -9 -9 -9 -9 -9 -9 -9 -9 -9 -9 -9 -9 -8 -8 -8 -8 -8 -8 -8 -8 -8 -8 -8 -7 -7 -7 -7 -7 -7 -7 -6 -6 -6 -6 -6 -5 -5 -5 -5 -4 -4 -3 -3 -3 -3 -3 -3 -3 -3 -3 -3 -2 -2 -2 -3 -3 -3 -3 -3 -3 -3 -3 -2 -2
-9 -9 -9 -9 -9 -9 -9 -9 -9 -9 -9 -9 -9 -9 -9 -9 -9 -9 -9 -9 -8 -8 -8 -8 -8 -8 -8 -8 -8 -7 -7 -7 -7 -7 -7 -6 -6 -6 -6 -6 -6 -5 -5 -5 -4 -4 -4 -3 -3 -3 -3 -3 -3 -3 -3 -3 -2 -2 -3 -3 -3 -3 -3 -3 -3 -3 -2 -2 -2
-8 -8 -8 -8 -8 -9 -9 -9 -9 -9 -9 -9 -9 -9 -9 -9 -9 -9 -9 -9 -9 -9 -9 -8 -8 -8 -8 -8 -8 -8 -8 -7 -7 -7 -7 -6 -6 -6 -6 -6 -6 -5 -5 -5 -4 -4 -4 -3 -3 -3 -3 -3 -3 -4 -3 -3 -2 -2 -3 -3 -3 -3 -3 -3 -3 -3 -2 -2 -2
-8 -8 -8 -8 -8 -8 -8 -9 -9 -9 -9 -9 -9 -9 -9 -9 -9 -9 -9 -9 -9 -9 -9 -9 -9 -8 -8 -8 -8 -8 -8 -8 -7 -7 -7 -6 -6 -6 -6 -6 -6 -6 -5 -5 -5 -4 -4 -4 -4 -4 -3 -3 -3 -4 -4 -3 -3 -2 -3 -3 -3 -3 -3 -3 -3 -3 -2 -2 -2
-8 -8 -8 -8 -8 -8 -8 -8 -8 -8 -9 -9 -9 -9 -9 -9 -9 -9 -9 -9 -9 -9 -9 -9 -9 -9 -8 -8 -8 -8 -8 -8 -7 -7 -7 -6 -6 -6 -6 -6 -6 -6 -5 -5 -5 -4 -4 -4 -4 -4 -4 -3 -4 -4 -4 -3 -3 -3 -3 -3 -3 -3 -3 -3 -3 -3 -3 -2 -3
-8 -8 -8 -8 -8 -8 -8 -8 -8 -8 -9 -9 -9 -9 -9 -9 -9 -9 -9 -9 -9 -9 -9 -9 -9 -9 -9 -9 -8 -8 -8 -8 -8 -7 -7 -6 -6 -6 -6 -6 -6 -6 -6 -5 -5 -4 -4 -4 -4 -4 -4 -4 -4 -4 -4 -3 -3 -3 -3 -3 -3 -4 -3 -3 -3 -3 -3 -2 -3
-8 -8 -8 -8 -8 -8 -8 -8 -8 -9 -9 -9 -9 -9 -9 -9 -9 -9 -9 -9 -9 -9 -9 -9 -9 -9 -9 -9 -9 -9 -8 -8 -8 -7 -7 -7 -6 -6 -6 -6 -6 -6 -6 -5 -5 -5 -4 -4 -4 -4 -4 -4 -4 -4 -4 -3 -3 -3 -3 -3 -3 -3 -3 -3 -3 -3 -3 -3 -3
-8 -8 -8 -8 -8 -8 -8 -9 -9 -9 -9 -9 -9 -9 -9 -9 -9 -9 -9 -9 -9 -9 -9 -9 -9 -9 -9 -9 -9 -9 -8 -8 -8 -7 -7 -7 -6 -6 -6 -6 -6 -6 -6 -5 -5 -5 -5 -4 -4 -4 -4 -4 -4 -4 -4 -4 -4 -4 -4 -3 -3 -3 -3 -3 -4 -3 -3 -3 -3
-9 -9 -9 -9 -9 -9 -9 -9 -9 -9 -9 -9 -9 -9 -9 -9 -9 -8 -9 -9 -9 -9 -9 -9 -9 -9 -9 -9 -9 -8 -8 -8 -8 -8 -7 -7 -7 -6 -6 -6 -6 -6 -6 -5 -5 -5 -5 -4 -4 -4 -4 -4 -4 -4 -4 -4 -4 -4 -4 -4 -4 -3 -3 -4 -4 -3 -3 -3 -3
-9 -9 -9 -9 -9 -9 -9 -9 -9 -9 -9 -9 -9 -9 -8 -8 -8 -8 -8 -8 -8 -8 -8 -9 -9 -9 -9 -9 -9 -8 -8 -8 -8 -8 -7 -7 -7 -6 -6 -6 -6 -6 -6 -6 -5 -5 -5 -5 -4 -4 -4 -4 -4 -4 -4 -4 -4 -4 -4 -4 -4 -4 -4 -4 -4 -4 -3 -4 -4
Height
873 872 871 869 868 866 865 863 862 860 859 857 855 853 852 850 848 846 844 843 841 839 838 836 834 832 830 829 828 826 824 823 821 820 819 818 816 814 813 811 810 808 807 805 803 802 800 798 796 795 793 791 789 788 786 784 783 781 779 778 777 775 773 772 770 769 767 766 764
873 872 871 870 868 867 865 863 862 861 859 858 856 854 852 850 848 847 845 843 842 840 838 836 834 832 831 829 827 826 824 822 821 819 818 817 815 814 813 811 809 808 806 804 803 801 799 798 796 794 792 790 788 787 785 783 782 780 778 777 776 774 773 771 769 768 766 764 763
874 872 871 870 868 867 865 864 862 861 859 858 856 854 853 851 849 847 845 844 842 840 838 836 834 832 830 828 827 825 824 822 820 819 817 816 814 813 812 810 808 807 805 804 802 801 799 797 795 793 792 789 788 786 784 782 781 779 778 776 775 773 772 770 768 767 765 763 762
874 873 871 870 868 867 866 864 863 861 859 858 856 854 853 851 849 848 846 844 842 840 838 836 834 832 830 828 827 825 823 822 820 818 817 815 813 812 811 809 808 806 805 803 802 800 798 797 795 793 791 789 787 785 783 782 780 778 777 775 774 773 771 769 768 766 764 762 761
874 873 871 870 869 867 866 864 863 861 859 858 856 854 853 851 849 848 846 843 842 840 838 836 834 832 830 828 827 825 823 821 820 818 816 814 813 812 810 809 808 806 804 803 801 799 798 796 794 792 790 788 786 784 783 781 779 778 776 775 773 772 770 768 767 765 763 761 759
874 873 871 870 869 867 866 864 863 861 859 858 856 854 853 851 849 848 846 843 842 840 838 836 834 832 830 828 826 824 823 821 819 818 816 814 813 811 809 808 807 805 803 802 800 798 797 795 793 791 789 787 785 783 782 780 779 777 775 774 772 771 769 767 766 764 762 761 758
874 873 871 870 868 867 866 864 863 861 859 858 856 854 853 851 849 847 845 843 841 839 837 835 834 832 830 828 826 824 822 820 818 817 815 813 812 810 809 807 806 804 803 801 799 798 796 794 792 790 788 786 784 783 781 780 778 777 775 773 771 769 768 766 764 763 761 759 758
874 873 871 870 868 867 865 864 862 860 859 857 855 854 852 850 849 847 845 843 841 839 837 835 833 832 830 828 826 824 822 820 818 816 815 813 811 810 808 807 805 803 802 800 799 797 795 793 792 790 788 786 784 782 780 779 778 776 774 772 770 768 767 765 763 762 760 758 757
874 872 871 869 868 867 865 863 862 860 858 857 855 853 852 850 848 847 845 843 841 839 837 835 833 831 829 828 826 824 822 820 818 816 814 813 811 809 808 806 804 803 801 799 798 796 794 793 791 789 787 785 783 781 779 778 776 775 773 771 769 767 766 764 763 761 759 758 756
873 872 871 869 868 866 865 863 861 860 858 856 855 853 852 850 848 846 844 843 841 838 837 835 833 831 829 827 825 823 821 819 818 815 814 812 810 809 807 805 804 802 800 798 797 795 793 792 790 788 786 784 783 780 778 777 775 773 772 770 768 766 764 763 762 760 758 757 755
873 872 870 869 868 866 864 863 861 859 858 856 854 853 851 849 848 846 844 842 840 838 836 834 833 831 828 827 825 823 821 819 817 815 813 811 810 808 807 805 803 801 799 798 796 794 793 791 789 787 785 783 782 779 777 776 774 772 770 768 767 765 763 762 761 759 757 755 753
873 872 870 869 867 866 864 862 860 859 857 855 854 852 850 849 847 845 843 842 840 838 836 834 832 830 828 826 824 823 821 819 817 815 813 811 809 808 806 804 803 801 798 797 795 793 792 790 788 786 784 782 780 778 776 774 773 771 769 767 765 764 762 761 759 758 756 754 753
873 871 870 868 867 865 863 862 860 858 857 855 853 852 850 848 847 845 843 841 839 837 835 833 832 830 828 826 824 822 820 818 817 814 813 811 809 807 805 803 801 799 798 796 794 793 791 789 787 785 783 781 779 777 775 773 772 769 767 766 764 763 761 760 758 757 755 754 752
873 871 869 868 866 865 863 862 860 858 856 855 853 851 850 848 846 844 843 841 839 837 835 833 831 829 828 826 824 822 820 818 816 814 812 810 808 806 804 802 800 798 796 794 793 791 790 788 786 784 782 779 778 776 774 772 770 768 766 765 763 762 761 759 758 756 754 753 751
872 871 869 868 866 864 863 861 860 858 856 854 853 851 849 848 846 844 842 840 838 837 834 833 831 829 827 825 823 822 819 818 816 813 812 809 808 806 804 802 799 797 795 793 791 789 788 786 784 782 780 778 776 774 772 771 769 767 765 764 763 761 760 758 757 755 754 752 750
872 870 869 867 866 864 863 861 859 858 856 854 852 851 849 847 845 843 842 840 838 836 834 832 830 828 826 825 823 821 819 817 815 813 811 809 807 805 803 801 798 796 794 792 790 788 786 784 782 780 778 776 774 773 771 769 767 765 764 763 762 761 759 758 756 755 753 752 750
871 870 868 867 865 864 862 861 859 857 855 854 852 850 848 847 845 843 841 839 838 836 833 832 830 828 826 824 822 820 818 816 814 813 811 808 806 804 802 800 798 796 793 791 789 787 784 782 780 778 776 774 772 771 769 767 765 764 763 763 761 760 758 757 756 754 753 751 750
871 869 868 866 865 863 862 860 858 857 855 853 851 850 848 846 844 843 841 839 837 835 833 831 829 827 825 823 822 820 818 816 814 812 810 808 806 804 802 799 797 795 793 790 788 786 783 780 777 775 773 771 769 768 767 765 764 763 763 762 761 759 758 757 755 754 753 751 749
870 869 867 866 864 863 861 859 858 856 854 853 851 849 847 846 844 842 840 838 837 835 833 830 828 827 825 823 821 819 818 816 814 812 810 808 805 803 801 799 797 794 792 790 787 784 782 778 776 773 770 768 766 765 764 764 763 763 762 761 760 758 757 756 755 753 752 751 749
870 868 867 865 863 862 860 858 857 855 853 852 850 848 847 845 843 841 839 838 836 834 832 830 828 826 824 822 820 819 817 815 813 811 809 807 805 803 801 798 796 794 791 789 786 783 780 777 774 770 766 764 763 762 762 762 762 762 761 760 759 758 756 755 754 753 752 750 748
869 868 866 864 863 861 860 858 856 855 853 851 849 848 846 844 843 841 839 837 835 833 832 829 827 825 823 821 820 818 816 815 813 811 808 807 804 803 800 798 796 793 790 788 785 782 779 775 771 767 763 761 760 760 761 761 761 761 760 759 758 757 756 754 753 752 751 749 747
869 867 866 864 862 861 859 858 856 854 852 851 849 847 845 843 842 840 838 837 835 833 831 829 827 825 823 821 819 818 816 814 813 810 808 806 804 802 800 798 795 793 790 787 784 781 778 774 770 765 762 759 758 759 760 760 760 760 759 758 758 756 755 754 753 751 750 748 747
868 867 865 863 862 860 858 857 855 853 852 850 848 846 845 843 841 839 838 836 834 833 831 828 827 824 823 821 819 817 815 813 812 810 808 806 804 802 799 797 795 792 790 787 784 781 778 774 770 765 762 761 760 760 760 760 760 759 758 758 757 756 755 753 752 751 749 748 747
867 866 864 863 861 859 858 856 854 853 851 849 848 846 844 842 841 839 837 835 833 832 830 828 826 824 822 820 818 817 815 813 811 809 807 805 803 801 799 797 794 792 790 787 784 782 779 776 771 766 763 763 762 761 761 760 759 759 758 757 757 756 754 753 752 750 749 748 746
867 865 863 862 860 859 857 855 854 852 850 849 847 845 843 842 840 838 836 835 833 831 829 827 825 823 821 819 818 816 814 813 811 809 807 804 803 801 799 797 794 792 790 787 784 782 780 777 772 767 764 763 762 762 761 760 759 758 758 757 756 755 754 753 751 750 748 747 746
866 864 863 861 860 858 857 855 853 852 850 848 847 845 843 841 840 838 836 834 832 830 828 827 825 823 821 819 817 815 814 812 810 808 806 804 802 800 798 796 794 792 790 787 784 782 779 776 771 767 764 763 763 762 761 760 759 758 758 757 756 755 754 753 751 749 748 747 746
865 863 862 860 859 858 856 854 853 851 849 848 846 844 843 841 839 837 835 833 832 830 828 826 824 823 821 819 817 815 813 812 810 808 806 804 802 800 798 796 794 792 789 787 784 781 778 775 771 768 765 763 763 762 762 761 760 759 758 757 756 755 754 753 751 749 748 746 745
865 863 861 860 858 857 855 854 852 851 849 847 845 844 842 840 838 837 835 833 831 829 827 826 824 822 820 818 817 815 813 811 809 808 806 804 802 800 798 796 794 792 789 787 784 782 778 775 772 769 766 764 763 763 762 761 760 759 758 757 756 755 754 753 751 749 748 746 745
864 863 861 859 858 856 855 853 852 850 848 847 845 843 841 840 838 836 834 832 830 828 827 825 823 822 820 818 816 814 813 811 809 808 806 804 802 799 798 796 794 792 789 787 784 782 779 776 772 769 767 765 764 763 762 761 760 759 758 757 756 755 754 753 751 749 748 746 745
863 862 860 859 857 856 854 853 851 849 848 846 844 843 841 839 837 835 833 832 830 828 827 825 823 821 820 818 816 814 812 811 809 807 805 803 802 799 797 795 793 792 789 787 784 782 779 776 773 770 768 766 765 763 762 761 760 759 758 758 757 756 754 753 751 749 748 747 746
863 861 860 858 857 855 853 852 850 849 847 845 844 842 840 838 837 835 833 831 829 828 826 824 823 821 819 818 816 814 812 810 808 807 805 803 802 799 797 795 793 792 789 787 785 782 779 776 773 771 769 767 766 764 763 762 761 760 759 758 757 756 754 752 751 749 748 747 746
862 861 859 858 856 854 853 851 850 848 846 845 843 841 839 838 836 834 833 831 829 827 825 823 822 820 818 817 815 813 812 810 808 807 805 803 802 799 798 795 793 792 790 788 785 783 780 777 774 772 770 768 767 765 763 762 761 760 759 758 757 756 754 752 751 749 748 748 747
862 860 859 857 855 854 852 850 849 847 846 844 843 841 839 837 835 833 832 830 828 827 825 823 821 819 818 816 814 813 811 809 808 806 805 803 801 799 798 796 793 792 790 788 786 783 781 778 775 773 771 769 767 765 763 763 762 761 760 759 758 756 754 752 751 750 749 748 747
861 860 858 856 855 853 851 850 848 847 845 843 842 840 838 837 835 833 831 829 828 826 824 823 821 819 818 816 814 813 811 809 808 806 804 803 801 799 798 796 794 792 790 788 787 784 782 779 776 774 772 770 768 766 764 763 762 761 760 759 758 756 754 753 752 751 750 749 748
861 859 857 856 854 852 851 849 847 846 844 843 841 839 838 836 834 832 831 829 827 826 824 823 821 819 817 816 814 812 811 809 807 806 804 803 801 799 798 796 794 792 791 789 787 785 782 780 778 775 773 771 769 767 765 763 763 762 761 760 758 757 755 753 752 751 750 749 748
860 858 857 855 853 852 850 848 847 845 843 842 840 838 837 835 833 832 830 828 827 825 823 822 820 819 817 815 813 812 810 808 807 805 804 802 801 799 797 796 794 792 791 789 787 785 783 781 778 776 774 772 770 768 766 765 764 763 762 761 759 758 756 754 753 752 751 750 749
860 858 857 855 853 851 850 848 847 845 843 841 840 838 836 834 833 831 830 828 827 825 823 822 820 818 817 815 813 812 810 808 807 805 803 802 800 799 797 796 794 793 791 789 788 786 783 781 779 777 775 773 771 769 768 766 765 764 762 761 760 759 758 756 754 753 752 751 750
859 858 856 854 853 851 849 848 846 844 843 841 839 838 836 834 833 831 829 828 826 824 823 821 819 818 816 814 813 811 809 808 807 805 803 802 800 799 797 796 794 793 791 789 788 786 784 782 779 777 775 773 771 770 768 767 766 765 763 762 761 759 758 757 756 755 753 753 751
859 858 856 854 853 851 849 848 846 844 843 841 839 838 836 834 833 831 829 828 826 824 823 821 819 817 816 814 813 811 809 808 806 805 803 802 800 798 797 796 794 793 791 790 788 786 784 782 780 778 776 774 772 770 769 768 767 766 764 763 761 760 759 758 757 756 755 754 753
859 858 856 854 853 851 849 848 846 844 843 841 839 837 836 834 833 831 829 828 826 824 823 821 819 817 815 814 812 811 809 807 806 804 803 802 800 798 797 796 794 793 792 790 788 787 785 783 781 779 777 775 773 771 770 769 768 767 766 764 763 761 760 759 758 757 756 755 754
859 857 856 854 853 851 849 848 846 844 843 841 839 838 836 834 833 831 829 828 826 824 823 821 819 817 815 814 812 810 809 807 806 804 803 801 800 798 797 796 794 793 792 790 789 787 785 783 782 780 778 776 773 772 771 770 769 768 767 766 764 763 761 760 758 758 757 757 756
Wind_Speed
19 19 19 19 19 19 19 19 19 19 20 21 21 21 21 21 21 21 21 21 22 22 23 24 24 24 25 26 27 27 28 28 27 27 27 26 26 26 26 26 26 26 27 27 28 27 27 26 25 24 24 24 23 23 23 23 23 23 24 23 22 22 23 23 23 23 23 23 22
19 20 19 19 19 19 19 19 19 20 20 21 21 21 21 21 21 21 21 22 22 23 24 24 24 25 26 27 27 27 27 28 28 28 28 26 26 25 26 26 26 27 27 27 27 27 26 26 25 25 24 24 23 23 23 23 23 23 24 23 23 22 22 22 23 23 23 22 22
19 20 19 19 19 20 20 19 20 21 21 21 21 20 20 20 20 21 21 22 23 24 24 24 25 26 26 27 27 27 28 28 29 28 27 26 25 25 25 26 26 27 27 27 26 26 26 26 26 25 24 23 23 23 24 23 23 23 23 23 22 22 22 22 23 23 22 22 21
19 20 19 19 20 20 20 19 20 21 22 21 20 20 20 20 20 21 22 23 24 24 24 24 25 26 26 26 27 28 28 28 28 28 27 26 26 26 26 26 26 27 26 26 26 26 27 26 25 24 23 23 23 23 23 23 23 22 22 22 22 22 22 22 23 23 22 22 22
19 19 19 19 20 20 20 20 21 21 21 21 20 20 20 20 21 22 23 24 24 24 24 25 25 25 26 27 28 29 29 28 28 27 27 26 26 26 26 26 26 26 26 26 26 26 26 26 25 23 22 22 22 22 22 23 23 22 22 23 23 22 22 22 23 23 23 24 23
19 20 20 20 20 20 20 20 21 21 21 20 20 21 21 21 22 23 24 24 24 24 25 25 25 25 26 27 28 29 28 28 27 27 27 27 26 26 26 26 26 26 26 26 26 26 26 25 24 23 22 22 22 22 22 23 23 23 23 24 24 23 23 23 23 23 24 25 25
19 20 20 20 20 20 20 21 21 21 21 20 20 21 22 22 23 24 24 24 24 24 24 24 25 26 27 28 28 28 28 28 27 27 26 26 26 26 26 27 26 26 26 26 26 26 25 25 24 23 22 22 22 22 22 23 23 24 25 25 24 24 23 22 22 23 25 26 27
19 19 19 19 20 20 20 21 22 21 21 20 21 21 22 23 24 24 24 24 23 24 24 25 26 27 28 28 28 28 28 28 27 27 26 26 27 27 27 27 26 26 26 26 25 25 25 24 23 22 22 22 22 23 24 24 25 26 26 26 25 24 23 22 23 24 25 26 27
19 19 19 19 19 20 21 21 21 21 21 21 21 22 23 23 23 24 24 23 23 24 25 25 26 27 28 28 28 27 27 27 27 27 27 27 27 27 27 27 26 26 26 26 25 26 25 24 23 22 22 22 23 25 25 26 26 26 26 25 25 24 23 23 23 24 25 26 27
19 20 20 20 20 20 21 21 21 21 21 21 21 22 22 23 23 23 23 23 24 25 25 26 27 27 27 27 27 27 26 26 27 27 27 27 27 27 27 27 26 27 27 26 26 25 25 23 23 23 23 24 25 26 27 26 26 26 26 25 24 24 24 24 24 24 25 25 26
19 20 20 20 20 21 21 21 21 21 20 21 21 22 22 22 22 23 23 23 24 25 26 26 26 27 27 26 26 26 26 26 27 27 28 28 27 27 27 27 27 27 27 27 26 25 24 23 23 24 25 26 27 27 26 26 26 27 27 26 25 25 25 24 24 23 23 24 25
19 19 19 20 20 21 21 21 21 21 20 21 21 22 22 22 22 23 23 24 24 25 25 26 26 26 26 26 26 26 26 27 27 27 27 27 27 27 27 27 27 27 27 27 26 25 24 24 25 26 27 28 27 26 26 27 27 28 27 26 25 25 24 23 23 23 23 23 24
19 19 19 20 20 21 21 21 21 21 21 21 22 22 22 22 23 23 23 24 25 25 25 25 25 25 25 25 26 26 26 27 27 27 27 27 27 27 27 27 27 27 28 27 26 26 25 26 26 27 28 28 27 27 27 27 28 28 27 26 24 24 23 22 22 22 22 23 23
19 19 19 20 21 21 21 21 21 20 21 21 22 22 23 23 23 23 23 24 25 25 25 25 24 24 24 25 26 26 27 27 27 27 27 27 26 27 27 27 28 28 28 28 27 27 27 27 27 28 27 28 27 28 28 28 29 28 27 24 23 22 22 21 21 21 22 22 22
19 19 19 20 20 21 21 21 21 21 21 22 22 23 23 23 23 23 23 24 25 25 25 25 25 25 25 25 26 26 26 26 26 26 26 26 26 26 27 28 28 29 29 29 29 29 29 29 29 28 28 28 28 28 29 30 30 28 25 22 21 21 21 21 21 21 21 21 22
19 19 19 20 20 21 21 21 21 21 21 22 23 23 23 23 23 23 24 24 25 25 25 25 25 25 25 25 25 26 26 26 26 26 26 26 27 27 28 28 29 29 30 30 31 31 31 30 30 29 28 28 28 29 30 31 31 27 23 20 19 19 19 19 20 20 20 21 21
19 19 20 20 21 21 21 21 21 21 22 23 23 23 23 23 23 24 24 24 25 25 25 26 25 25 25 25 25 25 26 26 26 26 26 27 27 28 28 29 29 30 30 31 31 31 31 31 31 30 29 29 29 30 31 32 29 23 19 17 17 18 18 18 18 19 19 20 21
19 20 20 20 21 21 22 22 22 22 23 23 23 23 23 23 24 24 24 24 25 25 26 26 26 25 25 25 25 25 25 25 26 26 27 27 28 28 29 29 29 30 30 31 31 31 32 32 33 33 32 31 31 31 32 30 24 18 14 14 15 16 17 18 18 18 19 20 21
20 20 20 21 21 22 22 22 22 23 23 23 23 23 23 24 24 24 24 24 25 25 26 26 26 25 25 25 25 25 25 25 26 26 27 28 28 28 29 29 30 30 31 31 31 31 32 34 35 36 36 35 34 33 31 25 18 13 11 13 14 16 17 18 18 18 19 20 21
20 20 21 21 22 22 22 22 23 23 23 23 23 23 24 24 24 24 24 25 25 25 25 25 26 25 25 25 25 25 25 25 25 26 27 27 28 28 29 29 30 30 30 30 31 32 33 35 37 39 39 38 36 32 26 18 11 9 10 12 14 16 18 19 19 19 20 21 21
20 21 21 21 22 22 22 22 23 23 23 23 23 23 23 24 24 24 24 24 24 25 25 25 25 25 25 25 25 25 25 24 25 25 26 27 27 28 28 29 30 30 30 30 31 33 35 37 39 40 40 37 31 24 15 9 7 8 10 12 15 17 19 20 21 21 21 22 22
21 21 21 22 22 22 22 23 23 23 23 23 23 23 23 24 24 24 24 24 24 24 24 25 25 25 25 25 25 25 24 24 24 25 26 27 27 28 28 29 29 29 30 30 32 34 36 39 40 38 32 25 17 9 5 5 7 9 11 13 15 17 19 21 22 22 22 23 23
21 21 22 22 22 22 22 23 23 23 23 23 23 23 24 24 24 24 24 24 24 24 24 24 24 24 24 24 24 24 24 24 24 25 26 26 27 27 28 28 28 28 28 29 31 33 36 39 38 31 23 16 11 7 6 7 9 10 12 13 14 16 18 20 21 22 22 22 22
22 22 22 22 22 23 23 23 23 23 23 24 24 24 24 24 24 24 24 25 25 25 25 25 24 24 24 24 23 23 23 24 24 25 26 26 27 27 28 28 28 27 27 28 30 32 35 39 36 27 18 14 12 10 10 10 11 11 12 13 13 14 16 19 21 21 21 21 20
23 23 23 23 23 23 24 24 24 24 24 24 24 24 24 24 24 24 25 25 25 25 25 25 24 24 23 23 23 23 23 23 24 25 25 26 27 27 28 27 27 26 26 27 30 32 35 40 38 28 18 14 13 13 13 12 12 12 12 12 12 13 15 18 20 21 21 20 19
24 24 24 24 24 24 24 24 24 24 24 24 24 24 24 24 24 25 25 25 25 25 25 24 24 23 23 22 22 23 23 23 24 24 25 26 27 27 27 27 26 26 27 28 31 34 37 40 40 33 22 17 14 13 13 13 13 13 13 12 11 12 15 17 19 20 20 19 17
25 25 25 25 25 25 25 25 25 24 24 25 24 25 25 25 25 25 25 25 25 25 24 24 23 22 22 22 22 23 24 24 24 24 24 25 26 27 27 27 26 27 28 30 32 35 37 40 41 37 29 22 16 13 13 13 14 13 13 12 12 13 15 16 18 19 19 18 16
26 26 25 25 25 25 25 25 24 24 25 25 25 25 25 25 26 25 25 25 25 24 24 23 22 22 22 22 23 24 24 24 24 24 24 25 26 26 26 27 27 27 28 30 32 35 37 39 40 38 33 26 20 15 13 13 13 13 13 12 13 14 15 17 18 19 19 18 16
26 26 26 26 25 25 25 25 24 25 25 25 25 25 25 26 26 26 25 25 25 24 23 23 22 22 22 23 23 24 24 24 24 23 23 24 25 26 26 27 27 27 28 30 32 35 37 38 39 38 35 30 25 19 15 13 13 13 13 13 14 15 16 17 18 19 18 17 16
26 26 25 25 25 25 25 25 25 25 25 25 25 25 26 26 26 26 25 25 24 24 23 23 23 23 23 23 24 24 24 24 23 23 23 24 25 25 26 27 27 27 28 30 32 35 36 37 38 38 36 32 27 22 18 15 13 13 13 13 14 15 16 18 19 19 19 17 15
25 25 25 25 26 26 26 26 26 25 25 25 25 26 26 26 26 25 25 25 24 24 24 23 23 23 24 23 23 23 23 24 24 23 23 23 24 25 26 27 27 27 27 29 32 34 35 36 37 38 36 33 28 24 19 16 14 13 13 14 14 16 17 18 19 19 18 16 14
24 24 24 25 25 26 26 26 25 25 25 25 25 25 25 25 25 25 25 24 24 24 24 24 24 23 23 23 23 23 23 24 23 23 23 23 24 24 25 26 26 26 26 29 31 33 34 35 36 37 36 33 29 25 21 16 14 13 13 14 15 17 19 20 20 19 17 15 14
23 23 24 25 25 25 26 25 25 25 25 25 25 25 25 25 25 25 24 24 24 24 24 24 24 23 23 23 23 23 24 24 23 23 23 23 23 23 24 24 24 25 26 28 30 31 32 34 35 36 35 33 29 26 22 17 14 13 14 14 16 18 21 22 21 18 15 13 13
24 24 25 25 25 25 26 26 26 25 25 25 25 25 25 25 25 25 24 24 24 23 23 23 23 23 23 23 23 23 23 23 23 23 23 23 23 23 23 23 23 24 25 27 28 29 31 32 33 34 33 31 28 26 23 18 14 13 14 15 17 19 22 22 22 18 14 13 13
25 25 25 25 25 26 26 26 26 25 25 25 25 25 24 24 24 24 24 24 24 24 23 23 23 23 23 23 23 23 23 24 24 23 23 22 22 22 22 22 22 23 24 25 26 27 29 30 32 32 32 29 27 26 23 19 15 14 14 15 18 20 21 22 22 19 16 15 16
25 25 25 26 25 25 25 25 25 25 25 25 25 25 25 24 24 24 24 23 23 24 24 24 24 23 23 23 23 23 23 24 24 23 22 22 21 21 21 22 22 22 23 24 25 26 27 28 30 31 30 28 26 24 23 20 17 15 15 15 17 19 21 21 21 20 19 18 21
25 25 25 25 25 25 25 25 25 25 25 25 24 24 24 24 24 23 23 23 23 23 24 24 24 24 23 23 23 23 23 23 23 23 22 21 21 21 21 21 21 21 22 23 23 24 25 27 28 29 29 27 25 23 20 19 17 17 16 15 16 18 19 20 20 20 20 22 24
25 25 25 25 25 25 25 25 24 24 24 24 24 24 24 24 23 23 23 23 23 23 24 24 24 24 23 24 24 24 23 23 23 22 22 21 21 20 20 20 20 20 20 21 22 23 24 25 27 28 28 27 25 22 18 17 17 18 17 16 16 16 17 18 18 18 19 23 26
25 25 24 24 24 24 24 24 24 24 23 23 24 24 24 24 23 23 23 23 23 23 24 24 24 23 23 24 23 23 23 23 22 22 21 21 20 20 19 18 18 19 19 20 21 22 23 24 26 27 27 26 25 21 17 16 17 18 18 17 16 16 16 17 17 16 16 21 26
25 24 24 24 24 24 24 23 23 23 23 23 23 24 24 23 23 23 23 23 23 23 23 23 23 23 23 23 23 23 23 23 22 22 22 21 20 19 18 17 17 18 19 19 20 21 22 24 25 26 27 26 24 20 17 16 17 18 18 18 17 17 17 18 17 14 14 20 25
24 23 23 23 23 23 23 23 22 22 22 23 23 23 23 23 23 23 23 23 23 23 22 22 22 23 23 23 22 22 22 22 22 22 22 22 20 19 17 16 16 17 18 19 19 20 21 23 24 25 26 26 23 19 17 17 18 18 19 19 19 19 19 19 18 16 16 20 23
Wind_Direction
339 338 337 336 335 334 332 330 329 329 329 328 326 325 324 323 322 322 322 323 323 322 321 320 319 319 320 321 322 322 323 323 323 323 323 322 321 321 321 320 321 322 322 322 322 321 320 321 322 321 318 315 313 311 310 309 307 306 305 305 306 308 308 306 304 303 303 302 301
339 338 338 337 336 335 333 331 331 330 330 328 326 325 324 323 323 323 323 323 322 321 320 319 319 319 320 321 321 322 323 323 323 323 323 323 322 322 322 322 321 322 322 322 322 321 321 322 322 320 317 314 312 311 309 308 307 306 305 306 307 309 309 307 305 304 303 302 302
338 338 338 337 337 336 335 333 331 331 329 328 326 325 324 324 323 323 322 322 321 320 320 319 319 319 320 321 322 322 323 323 323 323 323 323 323 323 323 323 322 322 322 322 321 321 321 322 321 318 316 313 311 310 308 308 307 306 306 308 309 310 309 307 306 305 304 304 305
338 338 338 337 337 336 335 333 331 330 329 327 326 325 325 324 323 322 322 321 321 320 320 320 320 320 320 321 321 322 322 322 323 323 323 323 324 324 324 323 323 322 322 322 321 321 321 321 319 316 314 312 310 308 307 307 307 307 308 309 310 309 308 306 306 306 306 305 306
338 338 337 336 336 335 334 332 331 329 328 327 326 325 325 324 323 323 322 322 321 320 320 320 320 320 320 321 321 322 322 322 323 323 323 323 323 324 324 323 323 322 322 321 321 321 320 319 318 315 313 311 310 308 307 307 307 307 308 309 309 308 306 305 305 306 306 306 306
336 336 336 336 335 335 334 332 330 329 327 326 325 324 324 324 323 323 322 322 320 320 320 320 321 321 321 322 322 322 323 323 323 323 323 323 323 323 323 323 322 322 322 321 321 320 319 319 317 315 313 312 310 309 309 310 310 310 310 310 308 306 304 304 305 306 307 306 306
335 335 335 335 334 334 333 332 330 328 327 325 324 324 324 323 323 323 322 321 320 321 321 322 322 322 322 322 323 323 323 323 322 322 322 322 322 322 322 322 322 323 322 322 321 320 319 318 316 314 313 313 312 312 312 313 312 312 311 309 307 305 303 303 305 306 307 307 307
334 334 334 334 334 333 332 331 330 328 327 325 324 324 324 324 323 323 323 323 322 322 322 321 321 322 322 323 323 323 323 322 322 322 322 322 322 322 322 322 322 322 322 322 320 319 318 317 315 312 312 313 313 313 313 313 312 311 309 307 305 304 303 304 306 307 307 307 307
334 334 334 334 333 333 332 331 329 328 326 325 324 324 325 325 325 325 324 323 322 321 321 321 321 322 323 323 323 323 323 322 322 321 321 321 321 321 321 322 322 322 322 321 320 319 318 316 313 312 312 313 313 313 313 313 311 310 308 305 304 304 305 306 307 307 307 307 307
334 334 334 334 333 333 332 330 329 328 326 325 325 325 326 326 326 325 325 323 322 322 322 322 322 323 323 323 323 323 323 322 321 321 321 321 321 321 321 322 322 322 321 320 319 319 317 315 313 312 313 313 313 313 312 312 311 309 307 304 303 304 307 308 308 308 307 307 307
334 334 333 333 332 332 331 331 329 328 327 326 327 327 327 327 326 325 324 323 323 322 322 322 323 324 324 324 323 323 322 322 321 321 320 320 320 321 321 321 321 321 320 319 319 318 317 315 313 313 313 313 313 313 312 312 311 309 306 303 302 305 308 310 310 309 308 308 307
333 333 333 332 332 332 331 331 330 328 327 327 328 328 328 327 326 325 324 324 324 323 323 323 324 324 324 323 323 322 322 322 321 321 320 320 321 321 321 321 320 319 319 318 318 317 316 315 314 313 312 313 313 313 313 312 311 308 304 302 304 308 310 310 310 309 309 309 309
332 332 332 331 332 331 331 331 330 328 327 328 328 328 328 327 326 325 325 325 325 324 324 324 324 324 324 323 322 322 322 322 321 321 321 321 321 321 321 321 320 319 318 318 317 317 315 314 313 312 312 311 311 312 312 311 310 306 303 302 306 310 311 310 310 310 310 310 311
331 331 331 331 331 331 331 330 329 328 327 328 328 328 327 327 326 326 326 325 325 324 324 324 324 324 323 322 322 322 322 322 322 321 321 321 321 322 321 321 320 319 318 317 317 316 315 314 313 312 310 310 310 310 311 311 309 305 303 303 308 310 311 310 311 311 312 313 313
331 331 331 331 331 331 330 330 329 328 327 327 327 327 327 326 325 325 325 325 325 324 324 324 324 323 322 322 322 323 323 323 323 322 322 322 322 322 321 321 320 319 318 317 316 316 315 314 312 310 309 308 308 309 310 310 308 305 303 305 309 311 311 311 313 314 315 316 317
330 330 330 330 330 330 330 329 328 326 326 325 325 326 325 325 324 324 324 325 325 325 324 324 323 322 322 323 323 324 324 324 324 324 324 324 323 323 322 321 320 319 318 317 317 316 315 313 311 309 307 306 306 307 309 309 306 304 303 307 310 312 313 314 316 318 319 319 320
329 329 329 329 329 329 328 328 326 325 324 323 323 324 324 324 323 323 323 325 325 325 324 324 323 322 322 323 324 325 326 326 326 325 325 325 324 323 322 322 321 320 319 318 317 316 315 313 311 308 305 304 304 305 306 306 304 303 305 310 313 315 317 319 320 321 321 322 321
328 328 328 328 328 327 327 326 325 324 323 322 322 322 322 322 323 323 323 324 325 325 324 323 323 322 322 322 324 325 326 326 326 326 326 325 324 323 323 322 322 321 320 319 318 316 314 313 311 309 306 302 301 302 303 303 301 302 307 313 317 320 322 323 324 324 323 323 322
326 327 327 327 326 325 325 324 324 323 322 322 321 321 321 322 322 322 323 324 325 325 325 323 323 322 322 322 323 325 326 326 326 326 325 325 324 323 323 323 323 322 321 319 317 315 314 314 313 309 305 301 299 299 299 298 297 299 306 314 320 324 327 327 327 326 325 325 324
325 325 325 325 324 324 323 323 323 322 322 321 321 321 321 322 322 323 323 324 325 325 325 324 323 322 321 321 322 323 325 325 325 325 325 325 324 324 324 324 324 323 321 319 317 316 316 316 313 309 305 301 298 296 295 293 292 295 304 314 324 329 332 332 331 330 330 329 328
323 323 323 323 322 322 322 322 322 322 321 321 321 321 322 322 322 323 323 323 324 325 325 325 323 322 321 321 321 322 323 324 325 325 324 324 324 325 325 325 324 323 321 320 319 319 319 317 315 311 309 306 302 297 293 289 291 297 306 316 326 332 335 336 336 336 336 336 334
321 321 321 320 320 320 320 321 321 321 321 321 321 321 322 322 322 323 323 323 324 325 325 325 324 322 321 320 320 320 322 323 324 325 325 325 325 325 325 325 324 323 321 321 321 321 321 321 321 323 324 324 321 318 314 310 307 310 315 320 327 332 335 337 339 340 341 341 341
319 319 319 319 319 319 319 320 320 321 321 321 321 322 322 322 322 323 323 324 325 325 325 325 324 323 321 320 319 320 321 323 324 325 325 325 325 326 326 326 325 324 323 323 323 322 324 328 334 342 354 4 12 14 357 334 323 321 323 326 328 331 334 337 340 342 343 345 347
318 318 318 318 318 318 318 319 319 320 320 321 321 321 321 321 322 323 323 324 324 325 325 324 323 322 321 320 320 320 322 323 324 325 326 326 326 327 327 327 327 326 325 324 323 323 327 338 347 357 9 16 10 359 348 339 331 329 331 332 333 333 335 337 340 341 342 345 350
317 317 317 317 317 318 318 319 319 319 319 320 320 321 321 322 322 322 323 323 324 324 324 324 324 323 322 322 322 322 323 323 324 325 326 326 327 327 328 328 328 328 327 325 324 324 330 342 353 359 4 4 355 348 343 340 337 335 336 337 339 339 339 339 339 339 339 343 350
317 317 317 318 318 318 318 318 319 318 318 318 319 320 321 321 322 322 322 322 322 322 323 324 324 324 324 324 323 323 324 324 324 325 325 325 326 327 329 330 330 329 328 327 327 327 332 343 356 3 5 3 356 348 343 340 339 338 338 341 345 346 344 341 338 336 337 342 350
316 317 317 317 318 318 318 318 318 318 318 319 318 319 320 321 321 321 321 320 321 322 323 324 325 325 325 325 324 324 324 324 325 325 326 326 326 327 329 331 330 330 329 329 331 331 335 345 357 5 9 7 2 354 345 341 340 339 341 346 351 352 348 343 338 335 335 340 350
316 316 317 317 317 318 318 318 318 319 319 319 319 319 319 320 320 320 320 320 321 322 323 324 325 326 326 326 325 325 324 325 325 326 326 326 326 327 329 331 331 330 330 332 333 335 338 345 355 4 9 9 5 358 350 345 342 343 346 351 355 354 349 344 339 335 334 339 350
315 316 317 317 317 318 318 318 319 319 319 319 319 319 320 320 320 320 319 320 321 322 323 324 325 325 326 325 324 324 325 326 326 327 327 327 327 328 329 330 331 331 332 334 336 337 340 345 353 1 6 7 4 0 355 350 348 349 352 356 356 353 348 343 340 336 335 340 352
315 316 317 317 318 319 319 319 320 320 320 320 320 320 321 320 320 320 320 320 321 321 321 322 323 323 324 324 324 324 325 326 327 327 327 327 327 328 329 330 330 331 332 335 338 339 342 346 352 358 3 4 1 358 355 354 354 355 357 358 356 352 346 342 340 338 340 346 359
316 316 317 318 319 320 320 320 321 321 321 320 320 321 321 321 320 320 321 321 321 320 320 320 321 322 322 323 324 325 326 326 327 327 328 327 328 328 329 329 330 331 333 336 339 341 343 346 351 357 0 1 358 355 353 355 358 0 1 359 355 350 344 341 340 342 348 358 6
316 317 318 319 319 320 321 321 321 321 321 321 321 321 321 321 321 321 321 321 321 320 320 320 320 321 322 323 324 325 325 326 327 327 328 328 328 328 329 330 330 331 333 337 340 342 343 346 350 355 358 358 356 352 351 355 1 4 3 360 354 348 344 343 345 352 2 13 12
318 318 319 320 320 320 321 322 322 322 322 322 322 322 322 322 322 322 322 322 322 321 320 320 320 320 321 322 323 324 324 325 326 327 327 328 328 329 330 331 330 331 333 337 340 342 343 345 349 354 357 356 354 351 350 356 4 7 5 0 355 350 348 348 353 4 18 24 16
321 321 321 321 321 321 322 323 323 323 323 323 323 324 323 323 323 323 323 323 322 321 320 319 318 318 319 320 321 322 323 324 325 326 327 328 328 329 331 331 331 331 334 337 340 342 343 344 348 353 356 355 352 350 351 357 5 8 5 0 356 353 352 352 358 10 27 33 27
324 324 323 323 323 323 324 324 325 325 325 325 326 325 325 325 324 324 323 323 322 321 320 320 319 318 318 319 320 321 321 322 324 325 327 328 329 330 331 332 332 332 334 338 341 342 342 343 347 352 355 354 352 351 353 358 4 6 3 360 357 355 354 354 357 6 24 42 45
326 326 325 324 324 325 325 326 327 327 327 328 327 327 326 326 325 324 324 323 323 322 322 321 320 319 319 319 319 320 320 321 323 325 326 328 329 330 332 333 333 333 335 338 341 342 342 343 346 351 355 354 352 351 354 358 1 1 0 359 357 355 355 354 354 1 18 43 53
328 327 326 326 326 326 327 328 328 329 329 329 328 328 327 326 325 325 325 325 324 324 323 322 321 320 319 319 319 319 319 320 322 324 326 328 329 330 332 333 334 334 336 339 341 343 343 344 347 351 354 353 351 352 355 358 358 357 357 357 356 355 355 355 354 359 15 40 53
328 328 327 327 327 328 329 329 330 330 329 329 329 328 328 327 327 326 326 327 326 324 323 322 321 320 319 319 318 318 318 320 322 325 326 328 329 331 333 334 335 336 337 340 343 344 345 346 348 352 354 353 350 352 358 3 1 358 356 355 354 354 354 355 353 358 15 37 49
329 329 329 329 329 329 330 330 330 330 329 329 328 329 329 328 328 328 328 327 326 325 324 323 321 321 320 319 319 319 319 321 323 326 327 329 330 332 334 336 336 337 340 343 345 346 347 348 351 354 355 353 350 353 1 8 6 2 359 357 355 355 355 354 351 356 16 37 45
330 330 330 330 330 330 330 330 330 329 329 329 329 329 329 329 329 329 329 329 328 328 326 324 323 322 322 321 320 320 321 322 325 327 329 329 330 332 335 338 339 340 343 346 348 348 349 351 354 356 356 354 351 356 7 14 12 8 4 1 360 360 359 356 353 1 24 40 43
330 331 331 331 331 331 330 329 329 329 329 329 328 328 328 329 329 330 331 331 331 330 329 327 325 324 324 323 322 322 322 323 326 329 330 330 330 332 337 341 343 345 347 349 350 350 351 354 356 358 357 355 356 5 16 18 16 13 9 6 7 7 5 1 1 12 32 42 41